LiveATC.Net - Listen to live air traffic control over the Internet!


ICAO: CYZF  IATA: YZF   Airport: Yellowknife Airport
City: Yellowknife   State/Province: Northwest Territories
Country: Canada   Continent: North America
CYZF METAR Weather: CYZF 241920Z 10010KT 4SM -SN BR DRSN SCT036 OVC110 M25/M28 A3017 RMK SC4AC4 SLP254
CYZF Flight Activity (FlightAware)

CYZF Gnd/Twr/Center
Feed Status: UP   Listeners: 0
Listen in your browser - HTML5 player (in browser, HTML5)
Click here to listen with your own player (launches your MP3 player)
Archive Access: CYZF Gnd/Twr/Center
FacilityFrequency
Edmonton Centre135.800
Yellowknife Ground121.900
Yellowknife Tower118.500

NOTICE

Unauthorized use prohibited. See LiveATC.net Terms of Service


Airport/ARTCC Code
Frequency Search
(e.g., 124.400, 128.75)
Site-wide search
 


Browse Feeds
Top 50 Feeds
Coverage Map
Bad Weather Areas

LiveATC FAQ
Offer LiveATC feed
Contact LiveATC.net
Press Inquiries

LiveATC on iPhone
LiveATC on Android

Windows Phone
Windows 8/10

LiveATC Mobile
(Mobile browser)

ATC Audio Archives
Interesting Recordings

LiveATC Forums


Home Page
About LiveATC.net
Make a Donation
Terms of Use
Privacy Policy

Canadian Air Freqs

AIRMETs/SIGMETs

FAA Airport Status
Nat'l Airspace Status
Arrival Demand Charts


Server Software By:
Icecast.org
Liquidsoap